"2010-12-02 00:00:00",386221,10.19,319.8,7.807,1.353,11.79,103.3033,7.733,8.86,32.45,0,110,13.36,8.51,281.8
"2010-12-02 00:00:30",386222,11.86,318.5,6.755,1.162,12.76,103.326,7.791,8.88,32.39,0,110,13.36,8.57,280.5
"2010-12-02 00:01:00",386223,10.02,304,14.21,1.663,12.64,103.3439,7.836,8.9,32.08,0,110,13.36,8.62,266.0
"2010-12-02 00:01:30",386224,8.83,305.6,6.014,1.375,12.69,103.3697,7.902,8.95,32.07,0,110,13.36,8.68,267.6
"2010-12-02 00:02:00",386225,7.187,308.9,7.355,1.924,10.98,103.3737,7.913,8.9,32.13,0,110,13.36,8.69,270.9
"2010-12-02 00:02:30",386226,6.752,311.9,4.795,0.848,8.7,103.3761,7.919,8.84,32.11,0,110,13.36,8.70,273.9
"2010-12-02 00:03:00",386227,7.581,326.6,9.08,1.214,11.02,103.377,7.921,8.87,32.09,0,110,13.37,8.70,288.6
"2010-12-02 00:03:30",386228,8.35,301.8,11.32,1.42,12.29,103.3796,7.928,8.98,32.1,0,110,13.37,8.71,263.8
"2010-12-02 00:04:00",386229,11.45,289.5,5.765,1.711,12.75,103.3793,7.927,9.01,32.13,0,110,13.37,8.71,251.5
"2010-12-02 00:04:30",386230,10.08,303.6,8.36,1.454,13.17,103.3799,7.929,9.08,32.24,0,110,13.37,8.71,265.6
"2010-12-02 00:05:00",386231,6.121,270.8,11.5,1.349,10.71,103.3763,7.919,8.89,32.02,0,110,13.37,8.70,232.8
"2010-12-02 00:05:30",386232,4.032,271.6,6.419,0.336,8.5,103.3498,7.852,8.76,31.93,0,110,13.41,8.63,233.6
"2010-12-02 00:06:00",386233,6.086,292.3,14.66,1.652,9.55,103.3629,7.885,8.73,31.78,0,110,13.38,8.66,254.3
"2010-12-02 00:06:30",386234,5.042,285,13.16,1.433,9.38,103.3878,7.949,8.9,32,0,110,13.38,8.73,247.0
"2010-12-02 00:07:00",386235,8.61,319.6,8.7,1.244,12.75,103.4005,7.981,9,31.97,0,110,13.38,8.76,281.6
"2010-12-02 00:07:30",386236,7.35,300.3,14.02,1.443,12.42,103.4194,8.03,9.01,32.04,0,110,13.38,8.81,262.3
"2010-12-02 00:08:00",386237,7.483,308.1,14.95,1.292,12.52,103.4223,8.04,9,31.98,0,110,13.38,8.82,270.1
"2010-12-02 00:08:30",386238,5.929,306.8,14.66,1.999,9.83,103.4226,8.04,8.95,31.92,0,110,13.38,8.82,268.8
"2010-12-02 00:09:00",386239,6.687,290.8,15.59,1.064,9.09,103.4226,8.04,8.81,31.69,0,110,13.38,8.82,252.8
"2010-12-02 00:09:30",386240,4.505,265.3,6.455,0.557,9.21,103.4197,8.03,8.94,31.73,0,110,13.38,8.81,227.3
"2010-12-02 00:10:00",386241,5.24,280.7,19.9,1.748,12.27,103.4214,8.03,8.99,31.83,0,110,13.39,8.81,242.7
"2010-12-02 00:10:30",386242,6.133,298.3,12.76,1.154,11.92,103.4226,8.04,9.01,31.87,0,110,13.39,8.82,260.3
"2010-12-02 00:11:00",386243,6.422,309.1,5.999,1.232,11.59,103.4226,8.04,9.08,31.95,0,110,13.39,8.82,271.1
"2010-12-02 00:11:30",386244,7.325,302.3,6.384,0.88,8.96,103.4127,8.01,8.93,32,0,110,13.39,8.79,264.3
"2010-12-02 00:12:00",386245,8.4,316.8,6.43,2.052,10.43,103.4152,8.02,8.86,31.91,0,110,13.39,8.80,278.8
"2010-12-02 00:12:30",386246,9.64,318.4,7.827,1.091,11.71,103.4226,8.04,8.97,31.8,0,110,13.39,8.82,280.4
"2010-12-02 00:13:00",386247,10.88,314.3,5.615,1.025,13.39,103.4226,8.04,9.16,31.87,0,110,13.39,8.82,276.3
"2010-12-02 00:13:30",386248,9.66,315.8,5.888,1.464,13.36,103.4226,8.04,9.21,32.07,0,110,13.39,8.82,277.8
"2010-12-02 00:14:00",386249,8.93,315.1,6.326,1.685,12.86,103.4226,8.04,9.2,32.08,0,110,13.39,8.82,277.1
"2010-12-02 00:14:30",386250,6.395,316.9,10.52,1.833,9.38,103.4226,8.04,8.93,31.99,0,110,13.38,8.82,278.9
"2010-12-02 00:15:00",386251,5.363,313,13.6,1.414,10.27,103.4118,8.01,8.94,32.08,0,110,13.38,8.79,275.0
"2010-12-02 00:15:30",386252,4.535,284.5,8.21,1.406,9.92,103.413,8.01,8.9,31.83,0,110,13.38,8.79,246.5
"2010-12-02 00:16:00",386253,5.75,282.3,9.05,1.483,10.3,103.4147,8.02,8.94,31.88,0,110,13.38,8.80,244.3
"2010-12-02 00:16:30",386254,7.237,294.6,8.29,0.58,13.46,103.4003,7.981,9.14,32.05,0,110,13.38,8.76,256.6
"2010-12-02 00:17:00",386255,7.101,308.8,9.77,1.371,12.1,103.3946,7.966,9.09,31.95,0,110,13.38,8.75,270.8
"2010-12-02 00:17:30",386256,6.622,304.2,10.05,1.438,11.32,103.4045,7.991,9.05,31.95,0,110,13.38,8.77,266.2
"2010-12-02 00:18:00",386257,5.05,283.9,10.01,1.211,9.87,103.4051,7.993,9,31.92,0,110,13.38,8.77,245.9
"2010-12-02 00:18:30",386258,4.829,285.5,6.597,1.045,8.87,103.4022,7.986,8.84,31.76,0,110,13.38,8.77,247.5
"2010-12-02 00:19:00",386259,4.319,286.8,7.927,1.154,8.98,103.3994,7.978,8.99,31.89,0,110,13.39,8.76,248.8
"2010-12-02 00:19:30",386260,6.521,297.8,9.5,1.309,12.35,103.4169,8.02,9.03,31.75,0,110,13.39,8.80,259.8
"2010-12-02 00:20:00",386261,5.712,287.9,6.568,1.319,11.76,103.4341,8.07,9.13,31.7,0,110,13.39,8.85,249.9
"2010-12-02 00:20:30",386262,5.834,294.1,8.01,1.389,11.4,103.4548,8.12,9.14,31.64,0,110,13.39,8.90,256.1
"2010-12-02 00:21:00",386263,5.344,289.2,10.26,1.017,9.86,103.4576,8.13,8.99,31.35,0,110,13.39,8.91,251.2
"2010-12-02 00:21:30",386264,4.595,268.9,11.15,1.316,10.51,103.4661,8.15,9.07,31.46,0,110,13.39,8.93,230.9
"2010-12-02 00:22:00",386265,3.313,272.6,10.03,0.526,9.1,103.4768,8.18,9.03,31.27,0,110,13.43,8.96,234.6
"2010-12-02 00:22:30",386266,3.931,293.8,10.16,1.255,10.24,103.4906,8.21,9.04,31.24,0,110,13.39,8.99,255.8
"2010-12-02 00:23:00",386267,4.768,285.5,6.934,1.067,11.54,103.4915,8.21,9.24,31.47,0,110,13.4,8.99,247.5
"2010-12-02 00:23:30",386268,4.879,287.6,11.53,1.223,12.25,103.4836,8.19,9.25,31.47,0,110,13.4,8.97,249.6
"2010-12-02 00:24:00",386269,4.106,263.9,7.175,0.851,10.02,103.4953,8.22,9.23,31.22,0,110,13.4,9.00,225.9
"2010-12-02 00:24:30",386270,4.633,262.9,11.06,1.452,10.37,103.4979,8.23,9.19,31.25,0,110,13.4,9.01,224.9
"2010-12-02 00:25:00",386271,5.263,256.6,6.602,1.364,10.59,103.5008,8.24,9.18,31.09,0,110,13.4,9.02,218.6
"2010-12-02 00:25:30",386272,4.584,250.4,6.068,0.935,8.9,103.5116,8.27,9.13,30.96,0,110,13.4,9.05,212.4
"2010-12-02 00:26:00",386273,5.121,251.7,6.232,1.321,11.2,103.5193,8.28,9.19,31.01,0,110,13.4,9.07,213.7
"2010-12-02 00:26:30",386274,4.975,251.9,7.181,1.392,12.15,103.5261,8.3,9.31,31.07,0,110,13.4,9.08,213.9
"2010-12-02 00:27:00",386275,4.914,253.7,6.159,1.274,12.37,103.5371,8.33,9.35,31.11,0,110,13.4,9.11,215.7
"2010-12-02 00:27:30",386276,4.562,253,7.517,1.403,10.68,103.5386,8.33,9.26,31.1,0,110,13.4,9.12,215.0
"2010-12-02 00:28:00",386277,5.086,258.3,7.25,1.287,10.13,103.5377,8.33,9.26,31.23,0,110,13.4,9.11,220.3
"2010-12-02 00:28:30",386278,4.953,268,9.1,1.34,10.46,103.531,8.31,9.27,31.16,0,110,13.4,9.10,230.0
"2010-12-02 00:29:00",386279,3.792,264.7,7.24,1.069,9.26,103.5299,8.31,9.16,31.03,0,110,13.4,9.09,226.7
"2010-12-02 00:29:30",386280,3.581,279.1,13.96,1.312,10.32,103.5439,8.35,9.17,30.9,0,110,13.4,9.13,241.1
"2010-12-02 00:30:00",386281,4.323,257.6,7.917,1.239,12.39,103.547,8.36,9.38,31.03,0,110,13.4,9.14,219.6
"2010-12-02 00:30:30",386282,4.129,256.8,4.714,1.237,10.78,103.5488,8.36,9.32,31.17,0,110,13.4,9.14,218.8
"2010-12-02 00:31:00",386283,3.921,258.9,7.807,1.226,10.32,103.5474,8.36,9.3,31.28,0,110,13.4,9.14,220.9
"2010-12-02 00:31:30",386284,2.947,252.4,5.062,1.063,9.07,103.5361,8.33,9.27,31.2,0,110,13.4,9.11,214.4
"2010-12-02 00:32:00",386285,2.957,268.2,12.14,1.018,9.24,103.5184,8.28,9.19,31.05,0,110,13.4,9.06,230.2
"2010-12-02 00:32:30",386286,3.482,269.6,9.58,1.328,10.85,103.5172,8.28,9.2,31.31,0,110,13.4,9.06,231.6
"2010-12-02 00:33:00",386287,3.561,256.8,5.832,1.206,9.48,103.5178,8.28,9.11,31.17,0,110,13.4,9.06,218.8
"2010-12-02 00:33:30",386288,2.696,259.3,13.85,1.089,9.65,103.5167,8.28,9.2,31.34,0,110,13.4,9.06,221.3
"2010-12-02 00:34:00",386289,3.334,278.9,6.007,1.375,10.91,103.5117,8.27,9.21,31.46,0,110,13.4,9.05,240.9
"2010-12-02 00:34:30",386290,2.638,288.4,9.44,1.009,9.77,103.5026,8.24,9.35,31.5,0,110,13.4,9.02,250.4
"2010-12-02 00:35:00",386291,3.677,297.1,8.89,1.314,9.69,103.5025,8.24,9.13,31.41,0,110,13.4,9.02,259.1
"2010-12-02 00:35:30",386292,2.749,301.8,5.553,0.801,9.26,103.5107,8.26,9.25,31.52,0,110,13.4,9.04,263.8
"2010-12-02 00:36:00",386293,2.747,306.8,7.958,1.43,10.26,103.5215,8.29,9.18,31.29,0,110,13.4,9.07,268.8
"2010-12-02 00:36:30",386294,1.109,301.8,11.55,0.336,8.29,103.5254,8.3,9.14,31.33,0,110,13.44,9.08,263.8
"2010-12-02 00:37:00",386295,1.163,292.1,10.99,0.29,8.32,103.5254,8.3,9.1,31.23,0,110,13.44,9.08,254.1
"2010-12-02 00:37:30",386296,3.566,315.8,8.06,1.264,12.04,103.5254,8.3,9.27,31.37,0,110,13.41,9.08,277.8
"2010-12-02 00:38:00",386297,3.517,317.2,6.719,1.38,11.65,103.5251,8.3,9.39,31.54,0,110,13.41,9.08,279.2
"2010-12-02 00:38:30",386298,3.358,334.5,6.437,1.361,10.44,103.526,8.3,9.23,31.29,0,110,13.41,9.08,296.5
"2010-12-02 00:39:00",386299,3.077,353.4,7.896,1.345,10.42,103.5257,8.3,9.22,31.25,0,110,13.41,9.08,315.4
"2010-12-02 00:39:30",386300,2.988,340.8,7.192,1.332,9.83,103.5257,8.3,9.29,31.23,0,110,13.41,9.08,302.8
"2010-12-02 00:40:00",386301,3.167,327,7.479,1.412,10.39,103.5381,8.33,9.29,31.23,0,110,13.41,9.11,289.0
"2010-12-02 00:40:30",386302,1.962,306.5,5.987,0.144,8.44,103.5486,8.36,9.14,31.09,0,110,13.45,9.14,268.5
"2010-12-02 00:41:00",386303,1.983,303.8,2.201,0.182,8.3,103.5528,8.37,9.15,31.13,0,110,13.45,9.15,265.8
"2010-12-02 00:41:30",386304,3.557,323.3,11.48,1.209,10.19,103.5539,8.37,9.27,31.15,0,110,13.41,9.15,285.3
"2010-12-02 00:42:00",386305,3.649,328.5,8.7,1.352,11.39,103.55,8.36,9.4,31.22,0,110,13.41,9.14,290.5
"2010-12-02 00:42:30",386306,3.048,321.6,7.653,1.287,10.75,103.5483,8.36,9.31,31.12,0,110,13.41,9.14,283.6
"2010-12-02 00:43:00",386307,3.19,321.3,9.1,1.386,10.39,103.5449,8.35,9.3,31.14,0,110,13.41,9.13,283.3
"2010-12-02 00:43:30",386308,3.302,319.9,7.194,1.267,10.14,103.5277,8.31,9.25,31.13,0,110,13.41,9.09,281.9
"2010-12-02 00:44:00",386309,2.523,321.8,13.41,1.092,9.95,103.5254,8.3,9.28,31.22,0,110,13.41,9.08,283.8
"2010-12-02 00:44:30",386310,1.327,328.1,21.72,0.887,8.11,103.5113,8.26,9.13,31.2,0,110,13.41,9.05,290.1
"2010-12-02 00:45:00",386311,1.409,295.9,7.15,0.202,7.941,103.4915,8.21,9.11,31.21,0,110,13.45,8.99,257.9
"2010-12-02 00:45:30",386312,1.319,301.5,6.271,0.169,8.21,103.4915,8.21,9.09,31.23,0,110,13.45,8.99,263.5
"2010-12-02 00:46:00",386313,2.979,312.3,7.418,1.244,12,103.4915,8.21,9.27,31.36,0,110,13.42,8.99,274.3
"2010-12-02 00:46:30",386314,2.361,313.4,8.67,1.275,11.69,103.4969,8.23,9.36,31.45,0,110,13.42,9.01,275.4
"2010-12-02 00:47:00",386315,1.029,299.1,7.098,0.702,8.68,103.5133,8.27,9.1,31.17,0,109.9,13.42,9.05,261.1
"2010-12-02 00:47:30",386316,1.28,289.7,10.09,0.861,8.65,103.5229,8.29,9.21,31.33,0,110,13.41,9.08,251.7
"2010-12-02 00:48:00",386317,2.755,278.8,6.671,1.237,10.76,103.5243,8.3,9.21,31.31,0,109.9,13.41,9.08,240.8
"2010-12-02 00:48:30",386318,2.206,285.9,8.66,1.195,10.5,103.5251,8.3,9.27,31.42,0,110,13.41,9.08,247.9
"2010-12-02 00:49:00",386319,0.964,285.8,3.056,0.077,8.2,103.5254,8.3,9.12,31.25,0,109.9,13.41,9.08,247.8
"2010-12-02 00:49:30",386320,0.865,291,5.328,0.078,8.02,103.5254,8.3,9.11,31.21,0,109.9,13.45,9.08,253.0
"2010-12-02 00:50:00",386321,0.78,286.9,2.847,0.043,8.1,103.5254,8.3,9.13,31.2,0,109.9,13.45,9.08,248.9
"2010-12-02 00:50:30",386322,1.112,288.4,10.74,0.96,9.22,103.5254,8.3,9.2,31.23,0,109.9,13.42,9.08,250.4
"2010-12-02 00:51:00",386323,2.726,305,6.645,1.216,12.18,103.526,8.3,9.35,31.4,0,109.9,13.41,9.08,267.0
"2010-12-02 00:51:30",386324,2.81,278.7,8.46,1.129,11.91,103.5257,8.3,9.28,31.28,0,109.9,13.41,9.08,240.7
"2010-12-02 00:52:00",386325,0.824,262.1,5.5,0.064,8.29,103.5088,8.26,9.15,31.19,0,109.9,13.45,9.04,224.1
"2010-12-02 00:52:30",386326,0.946,246.4,10.99,0.167,8.01,103.4933,8.22,9.16,31.3,0,109.9,13.46,9.00,208.4
"2010-12-02 00:53:00",386327,2.619,255.3,15.62,1.21,11.76,103.4939,8.22,9.36,31.72,0,109.9,13.43,9.00,217.3
"2010-12-02 00:53:30",386328,2.359,222.9,12.25,1.265,11.06,103.4911,8.21,9.28,31.56,0,109.9,13.43,8.99,184.9
"2010-12-02 00:54:00",386329,0.258,219.8,10.15,0.352,7.69,103.4628,8.14,9.09,31.41,0,109.9,13.43,8.92,181.8
"2010-12-02 00:54:30",386330,0.23,268,36.03,0.177,7.536,103.4601,8.13,9.04,31.53,0,109.9,13.46,8.91,230.0
"2010-12-02 00:55:00",386331,0.478,310.1,19.04,0.149,7.565,103.4483,8.1,9.01,31.66,0,109.9,13.47,8.88,272.1
"2010-12-02 00:55:30",386332,0.361,288.5,18.55,0.167,7.782,103.443,8.09,8.99,31.71,0,109.9,13.47,8.87,250.5
"2010-12-02 00:56:00",386333,1.184,329.9,15.12,1.096,9.63,103.4328,8.06,9.14,31.88,0,109.9,13.43,8.84,291.9
"2010-12-02 00:56:30",386334,2.653,312,10.48,1.095,11.78,103.4348,8.07,9.14,31.89,0,109.9,13.43,8.85,274.0
"2010-12-02 00:57:00",386335,1.81,298.1,19.08,1.303,10.61,103.4363,8.07,9.12,31.95,0,109.9,13.43,8.85,260.1
"2010-12-02 00:57:30",386336,0.449,275,16.84,0.098,7.932,103.4386,8.08,8.95,31.78,0,109.9,13.47,8.86,237.0
"2010-12-02 00:58:00",386337,0.328,265.9,20.71,0.463,8.34,103.4401,8.08,9.06,32.1,0,109.9,13.47,8.86,227.9
"2010-12-02 00:58:30",386338,2.087,231.9,15.97,1.102,11.49,103.4384,8.08,9.11,32.35,0,109.9,13.43,8.86,193.9
"2010-12-02 00:59:00",386339,1.119,120.7,56.16,1.284,9.98,103.4323,8.06,9.03,32.33,0,109.9,13.43,8.84,82.7
"2010-12-02 00:59:30",386340,0.12,144.8,13.67,0.115,7.4,103.4146,8.02,8.91,32.24,0,109.9,13.47,8.80,106.8
"2010-12-02 01:00:00",386341,0.315,171.8,14.09,0.153,7.361,103.419,8.03,8.89,32.27,0,109.9,13.47,8.81,133.8
"2010-12-02 01:00:30",386342,0.461,189.4,9,0.083,7.589,103.437,8.07,8.9,32.27,0,109.9,13.47,8.85,151.4
"2010-12-02 01:01:00",386343,0.344,203.3,8.31,0.09,7.745,103.4496,8.11,8.9,32.26,0,109.9,13.47,8.89,165.3
"2010-12-02 01:01:30",386344,0.188,218.3,14.55,0.162,8.13,103.4519,8.11,8.91,32.23,0,109.9,13.48,8.89,180.3
"2010-12-02 01:02:00",386345,1.002,275.2,13.68,1.084,9.49,103.4559,8.12,8.9,32.22,0,109.9,13.44,8.90,237.2
"2010-12-02 01:02:30",386346,1.444,259.6,15.87,1.389,11.4,103.4574,8.13,9.07,32.29,0,109.9,13.44,8.91,221.6
"2010-12-02 01:03:00",386347,1.676,283.1,18.78,1.328,11.34,103.4542,8.12,9.02,32.21,0,109.9,13.44,8.90,245.1
"2010-12-02 01:03:30",386348,0.223,271.2,7.258,0.139,8.29,103.452,8.11,8.91,32.05,0,109.9,13.47,8.89,233.2
"2010-12-02 01:04:00",386349,0.338,255.6,7.16,0.164,8.03,103.4351,8.07,9,32.07,0,109.9,13.47,8.85,217.6
"2010-12-02 01:04:30",386350,2.224,260.2,10.67,1.141,11.63,103.4246,8.04,9.07,32.12,0,109.9,13.43,8.82,222.2
"2010-12-02 01:05:00",386351,1.641,263,6.408,1.31,11.26,103.4249,8.04,9.08,32.22,0,109.9,13.43,8.82,225.0
"2010-12-02 01:05:30",386352,0.046,247.1,10.28,0.064,7.049,103.4249,8.04,8.87,32.06,0,109.9,13.47,8.82,209.1
"2010-12-02 01:06:00",386353,0.107,231.4,13.8,0.084,6.93,103.4215,8.03,8.87,32.08,0,109.9,13.47,8.82,193.4
"2010-12-02 01:06:30",386354,0.13,251.6,22.5,0.064,7.206,103.404,7.99,8.84,32.11,0,109.9,13.47,8.77,213.6
"2010-12-02 01:07:00",386355,0.754,291.2,5.902,0.175,7.248,103.3918,7.959,8.84,32.15,0,109.9,13.47,8.74,253.2
"2010-12-02 01:07:30",386356,0.93,294.5,8.46,0.128,7.556,103.391,7.957,8.82,32.26,0,109.9,13.47,8.74,256.5
"2010-12-02 01:08:00",386357,1.454,321.6,16.92,1.035,9.65,103.391,7.957,8.99,32.47,0,109.9,13.44,8.74,283.6
"2010-12-02 01:08:30",386358,2.365,352.9,11.14,1.284,11.61,103.391,7.957,8.96,32.52,0,109.9,13.44,8.74,314.9
"2010-12-02 01:09:00",386359,2.462,349.1,17.27,1.437,10.97,103.391,7.957,8.96,32.54,0,109.9,13.44,8.74,311.1
"2010-12-02 01:09:30",386360,2.328,334,5.813,1.199,10.2,103.3992,7.978,8.97,32.5,0,109.9,13.44,8.76,296.0
"2010-12-02 01:10:00",386361,2.441,327.7,9.54,1.364,11.07,103.4243,8.04,9.08,32.49,0,109.9,13.44,8.82,289.7
"2010-12-02 01:10:30",386362,1.528,304.5,9.32,0.979,8.56,103.4263,8.05,8.86,32.23,0,109.9,13.44,8.83,266.5
"2010-12-02 01:11:00",386363,1.407,309.9,7.022,0.31,7.204,103.4254,8.04,8.86,32.28,0,109.9,13.48,8.83,271.9
"2010-12-02 01:11:30",386364,1.259,299.3,11.57,0.366,7.616,103.4249,8.04,8.86,32.24,0,109.9,13.48,8.82,261.3
"2010-12-02 01:12:00",386365,1.255,295.1,8.24,0.182,8.05,103.4257,8.05,8.88,32.29,0,109.9,13.48,8.83,257.1
"2010-12-02 01:12:30",386366,2.23,311.3,4.914,1.353,10.13,103.4404,8.08,8.91,32.26,0,109.9,13.44,8.86,273.3
"2010-12-02 01:13:00",386367,3.191,330.2,9.67,1.449,11.87,103.4537,8.12,9.1,32.15,0,109.9,13.45,8.90,292.2
"2010-12-02 01:13:30",386368,3.116,326.9,11.32,1.317,11.31,103.4769,8.18,9.07,31.77,0,109.9,13.45,8.96,288.9
"2010-12-02 01:14:00",386369,3.245,322.8,8.76,1.167,11.54,103.4933,8.22,9.17,31.7,0,109.9,13.44,9.00,284.8
"2010-12-02 01:14:30",386370,2.791,322.5,12.27,1.45,11.11,103.5145,8.27,9.24,31.75,0,109.9,13.44,9.05,284.5
"2010-12-02 01:15:00",386371,1.593,288.6,9.34,0.634,8.68,103.5164,8.28,9.14,31.76,0,109.9,13.45,9.06,250.6
"2010-12-02 01:15:30",386372,1.327,294,8.5,0.127,7.603,103.4933,8.22,9.03,31.68,0,109.9,13.48,9.00,256.0
"2010-12-02 01:16:00",386373,1.297,289.5,7.559,0.139,7.784,103.4927,8.22,9.05,31.72,0,109.9,13.48,9.00,251.5
"2010-12-02 01:16:30",386374,1.333,296.2,9.98,0.22,8.07,103.4927,8.22,9.06,31.79,0,109.9,13.48,9.00,258.2
"2010-12-02 01:17:00",386375,2.87,274.3,8.97,1.4,10.95,103.4927,8.22,9.19,32.1,0,109.9,13.45,9.00,236.3
"2010-12-02 01:17:30",386376,2.583,234.9,18.05,1.597,11.12,103.5029,8.24,9.22,32.14,0,109.9,13.45,9.02,196.9
"2010-12-02 01:18:00",386377,2.899,253.8,22.08,1.55,11.09,103.5266,8.3,9.28,32.12,0,109.9,13.45,9.08,215.8
"2010-12-02 01:18:30",386378,3.866,283.4,7.126,1.428,11.32,103.5266,8.3,9.33,32.16,0,109.9,13.45,9.08,245.4
"2010-12-02 01:19:00",386379,4.026,285.2,10.32,1.115,12.07,103.5266,8.3,9.29,32.14,0,109.9,13.45,9.08,247.2
"2010-12-02 01:19:30",386380,1.607,283.5,3.08,0.175,8.21,103.5212,8.29,9.11,31.97,0,109.9,13.48,9.07,245.5
"2010-12-02 01:20:00",386381,1.842,282.8,4.019,0.092,7.969,103.5164,8.28,9.12,31.99,0,109.9,13.48,9.06,244.8
"2010-12-02 01:20:30",386382,1.636,283.9,4.27,0.677,8.35,103.5063,8.25,9.12,32.01,0,109.9,13.44,9.03,245.9
"2010-12-02 01:21:00",386383,2.077,290.8,9.78,1,8.97,103.4927,8.22,9.16,32.07,0,109.9,13.44,9.00,252.8
"2010-12-02 01:21:30",386384,2.716,314.5,9.69,1.387,10.76,103.4927,8.22,9.21,32.11,0,109.9,13.44,9.00,276.5
"2010-12-02 01:22:00",386385,1.581,317.2,7.485,0.797,9.34,103.4927,8.22,9.24,32.15,0,109.9,13.45,9.00,279.2
"2010-12-02 01:22:30",386386,2.513,315.4,7.528,1.474,10.82,103.4924,8.22,9.18,32.13,0,109.9,13.45,9.00,277.4
"2010-12-02 01:23:00",386387,3.503,317.7,5.669,1.283,11.44,103.4834,8.19,9.34,32.45,0,109.9,13.45,8.97,279.7
"2010-12-02 01:23:30",386388,3.876,315.1,8.27,1.288,10.14,103.4749,8.17,9.15,32.35,0,109.9,13.45,8.95,277.1
"2010-12-02 01:24:00",386389,3.243,313.2,3.453,0.51,8.83,103.482,8.19,9.16,32.15,0,109.9,13.48,8.97,275.2
"2010-12-02 01:24:30",386390,3.494,314.6,2.856,0.852,8.37,103.4927,8.22,9.07,31.94,0,109.9,13.45,9.00,276.6
"2010-12-02 01:25:00",386391,3.212,315.9,5.121,0.944,9.79,103.4927,8.22,9.26,32.02,0,109.9,13.45,9.00,277.9
"2010-12-02 01:25:30",386392,3.38,319.2,4.991,1.337,9.97,103.5037,8.25,9.1,31.73,0,109.9,13.45,9.03,281.2
"2010-12-02 01:26:00",386393,2.238,318,1.982,0.095,8.7,103.5275,8.31,9.16,31.71,0,109.9,13.48,9.09,280.0
"2010-12-02 01:26:30",386394,3.466,326.4,5.946,1.313,11.35,103.5269,8.3,9.42,31.89,0,109.9,13.45,9.09,288.4
"2010-12-02 01:27:00",386395,3.479,322.4,8.2,1.266,11.72,103.5278,8.31,9.41,31.94,0,109.9,13.45,9.09,284.4
"2010-12-02 01:27:30",386396,2.107,305.1,3.78,0.976,9.43,103.5275,8.31,9.31,31.95,0,109.9,13.45,9.09,267.1
"2010-12-02 01:28:00",386397,2.007,284.5,7.2,0.539,8.14,103.4992,8.23,9.14,31.86,0,109.9,13.45,9.01,246.5
"2010-12-02 01:28:30",386398,1.974,278.5,6.677,0.32,7.966,103.4933,8.22,9.11,31.95,0,109.9,13.49,9.00,240.5
"2010-12-02 01:29:00",386399,3.53,288,12.03,1.282,10.26,103.4766,8.18,9.25,32.14,0,109.9,13.45,8.96,250.0
"2010-12-02 01:29:30",386400,2.399,270.3,15.82,0.836,9.27,103.4597,8.13,9.19,32.18,0,109.9,13.45,8.91,232.3
"2010-12-02 01:30:00",386401,3.969,294.8,10.56,1.481,10.83,103.4602,8.13,9.1,32.02,0,109.9,13.46,8.91,256.8
"2010-12-02 01:30:30",386402,5.244,305.6,7.077,1.313,11.73,103.4758,8.17,9.26,32.14,0,109.9,13.46,8.95,267.6
"2010-12-02 01:31:00",386403,5.169,310.5,6.8,1.305,12.03,103.4936,8.22,9.32,31.95,0,110,13.46,9.00,272.5
"2010-12-02 01:31:30",386404,3.29,324.1,9.86,1.416,9.45,103.5127,8.27,9.16,31.63,0,109.9,13.45,9.05,286.1
"2010-12-02 01:32:00",386405,2.71,341.3,12.76,1.152,10.27,103.5401,8.34,9.22,31.09,0,109.9,13.45,9.12,303.3
"2010-12-02 01:32:30",386406,3.125,327.8,12.21,0.937,9.75,103.5814,8.44,9.19,30.29,0,109.9,13.45,9.23,289.8
"2010-12-02 01:33:00",386407,4.421,296.7,15.24,1.382,11.21,103.608,8.51,9.41,30.34,0,109.9,13.45,9.29,258.7
"2010-12-02 01:33:30",386408,2.401,255.7,11.42,0.827,9.03,103.636,8.58,9.31,30.13,0,109.9,13.46,9.37,217.7
"2010-12-02 01:34:00",386409,2.748,274.3,12.14,1.166,10.89,103.6383,8.59,9.5,30.79,0,109.9,13.46,9.37,236.3
"2010-12-02 01:34:30",386410,3.891,283.7,5.59,1.245,12.8,103.6371,8.59,9.57,30.98,0,109.9,13.46,9.37,245.7
"2010-12-02 01:35:00",386411,3.276,279.3,5.647,1.168,10.7,103.6357,8.58,9.51,31.05,0,109.9,13.46,9.36,241.3
"2010-12-02 01:35:30",386412,3.578,289.8,7.51,1.324,10.76,103.638,8.59,9.52,31.06,0,109.9,13.45,9.37,251.8
"2010-12-02 01:36:00",386413,2.271,288.4,5.594,0.203,8.27,103.6212,8.55,9.37,31.04,0,109.9,13.49,9.33,250.4
"2010-12-02 01:36:30",386414,2.843,298.9,7.55,1.014,9.58,103.6012,8.49,9.52,31.44,0,109.9,13.45,9.28,260.9
"2010-12-02 01:37:00",386415,2.448,301.3,9.52,1.023,8.91,103.5701,8.41,9.38,31.5,0,109.9,13.45,9.20,263.3
"2010-12-02 01:37:30",386416,1.887,305.2,4.249,0.129,8.19,103.539,8.34,9.28,31.61,0,109.9,13.48,9.12,267.2
"2010-12-02 01:38:00",386417,1.747,293.7,12.01,0.503,8.71,103.5067,8.25,9.34,31.83,0,109.9,13.48,9.03,255.7
"2010-12-02 01:38:30",386418,2.763,274.5,12.38,1.219,12.19,103.4891,8.21,9.4,32.04,0,109.9,13.45,8.99,236.5
"2010-12-02 01:39:00",386419,1.445,270.7,8.96,1.095,10.24,103.4645,8.14,9.22,31.95,0,109.9,13.45,8.93,232.7
"2010-12-02 01:39:30",386420,0.847,294.5,11.45,0.106,7.948,103.4589,8.13,9.15,32.01,0,109.9,13.48,8.91,256.5
"2010-12-02 01:40:00",386421,2.49,293,8.75,1.253,9.8,103.4408,8.08,9.18,32.12,0,109.9,13.45,8.86,255.0
"2010-12-02 01:40:30",386422,1.41,303.9,12.93,0.489,8.47,103.4329,8.06,9.18,32.21,0,109.9,13.48,8.84,265.9
"2010-12-02 01:41:00",386423,1.724,322.8,4.325,0.856,8.76,103.4298,8.06,9.17,32.3,0,109.9,13.45,8.84,284.8
"2010-12-02 01:41:30",386424,2.37,314.3,15.85,1.13,9.28,103.4301,8.06,9.01,32.2,0,109.9,13.45,8.84,276.3
"2010-12-02 01:42:00",386425,1.368,276.1,8.78,0.155,7.935,103.4296,8.06,8.98,32.25,0,109.9,13.49,8.84,238.1
"2010-12-02 01:42:30",386426,2.357,292.2,13.6,1.213,9.05,103.4296,8.06,8.96,32.3,0,109.9,13.46,8.84,254.2
"2010-12-02 01:43:00",386427,3.171,286.1,5.723,1.425,11.19,103.4293,8.05,9.15,32.55,0,109.9,13.46,8.84,248.1
"2010-12-02 01:43:30",386428,2.332,288.8,8.16,1.149,9.65,103.4298,8.06,9.07,32.55,0,109.9,13.46,8.84,250.8
"2010-12-02 01:44:00",386429,1.672,300.6,5.561,0.139,8.38,103.4293,8.05,9.09,32.57,0,109.9,13.5,8.84,262.6
"2010-12-02 01:44:30",386430,3.135,300.8,5.845,1.207,10.11,103.4293,8.05,8.99,32.48,0,109.9,13.46,8.84,262.8
"2010-12-02 01:45:00",386431,2.853,294.6,5.51,1.076,9.14,103.4284,8.05,9.17,32.66,0,109.9,13.46,8.83,256.6
"2010-12-02 01:45:30",386432,3.743,304.8,7.152,1.311,10.52,103.4307,8.06,9.03,32.53,0,109.9,13.46,8.84,266.8
"2010-12-02 01:46:00",386433,2.733,302.3,2.934,0.259,8.23,103.4319,8.06,8.94,32.44,0,109.9,13.5,8.84,264.3
"2010-12-02 01:46:30",386434,3.264,304.3,5.134,1.04,9,103.4322,8.06,9.02,32.5,0,109.9,13.46,8.84,266.3
"2010-12-02 01:47:00",386435,4.545,312.2,7.532,1.323,12.13,103.4351,8.07,9.18,32.67,0,109.9,13.46,8.85,274.2
"2010-12-02 01:47:30",386436,3.581,310,9.35,1.202,10.03,103.4336,8.07,9.13,32.59,0,109.9,13.46,8.85,272.0
"2010-12-02 01:48:00",386437,5.117,313.1,7.527,1.163,11.38,103.4348,8.07,9.07,32.46,0,109.9,13.46,8.85,275.1
"2010-12-02 01:48:30",386438,4.798,300.6,5.871,1.324,10.79,103.4405,8.08,9.13,32.6,0,109.9,13.46,8.86,262.6
"2010-12-02 01:49:00",386439,4.747,292.9,8.92,1.384,10.68,103.4354,8.07,9.11,32.65,0,109.9,13.46,8.85,254.9
"2010-12-02 01:49:30",386440,3.534,276.9,4.183,0.25,8.32,103.4342,8.07,8.97,32.6,0,109.9,13.46,8.85,238.9
"2010-12-02 01:50:00",386441,4.038,283.3,6.957,1.145,10.05,103.4331,8.06,9.02,32.68,0,109.9,13.46,8.84,245.3
"2010-12-02 01:50:30",386442,4.419,287.8,7.45,1.352,11.62,103.4277,8.05,9.14,32.78,0,109.9,13.46,8.83,249.8
"2010-12-02 01:51:00",386443,2.508,285.6,10,0.781,8.42,103.428,8.05,9,32.7,0,109.9,13.46,8.83,247.6
"2010-12-02 01:51:30",386444,2.938,301.2,11.03,1.258,10.35,103.4136,8.01,8.98,32.71,0,109.9,13.46,8.79,263.2
"2010-12-02 01:52:00",386445,2.416,321.2,14.37,1.416,9.71,103.4015,7.984,9.06,32.82,0,109.9,13.46,8.76,283.2